Private Wetterstation Sandau
Wetterdaten: Dienstag, 27.11.2012
Datum Zeit Temp. A. Feuchte A. Luftdruck Regen Wind Richtung Richtung Taupunkt Windchill
27.11.2012 00:01 7,3 C 90 % 1004,6 hPa 0,0 l/m 5,0 km/h (1 Bft) S 180 5,8 C 6,7 C
27.11.2012 00:06 7,4 C 90 % 1004,6 hPa 0,0 l/m 4,7 km/h (1 Bft) S-SW 202 5,9 C 6,9 C
27.11.2012 00:11 7,4 C 90 % 1004,6 hPa 0,0 l/m 4,7 km/h (1 Bft) S-SW 202 5,9 C 6,9 C
27.11.2012 00:16 7,4 C 90 % 1004,5 hPa 0,0 l/m 0,0 km/h (0 Bft) SO 135 5,9 C 7,4 C
27.11.2012 00:21 7,4 C 90 % 1004,6 hPa 0,0 l/m 8,6 km/h (2 Bft) S-SO 157 5,9 C 5,8 C
27.11.2012 00:26 7,4 C 91 % 1004,6 hPa 0,0 l/m 4,7 km/h (1 Bft) SW 225 6,0 C 6,9 C
27.11.2012 00:31 7,4 C 91 % 1004,5 hPa 0,0 l/m 3,6 km/h (1 Bft) S 180 6,0 C 7,4 C
27.11.2012 00:36 7,4 C 91 % 1004,4 hPa 0,0 l/m 7,2 km/h (2 Bft) S-SW 202 6,0 C 6,1 C
27.11.2012 00:41 7,4 C 91 % 1004,4 hPa 0,5 l/m 3,2 km/h (1 Bft) S-SO 157 6,0 C 7,4 C
27.11.2012 00:46 7,4 C 91 % 1004,5 hPa 0,0 l/m 4,0 km/h (1 Bft) S-SW 202 6,0 C 7,4 C
27.11.2012 00:51 7,5 C 91 % 1004,4 hPa 0,0 l/m 5,8 km/h (2 Bft) S 180 6,1 C 6,7 C
27.11.2012 00:56 7,5 C 91 % 1004,4 hPa 0,0 l/m 4,0 km/h (1 Bft) SW 225 6,1 C 7,5 C
27.11.2012 01:01 7,5 C 91 % 1004,4 hPa 0,0 l/m 6,8 km/h (2 Bft) S 180 6,1 C 6,4 C
27.11.2012 01:06 7,5 C 91 % 1004,4 hPa 0,0 l/m 11,9 km/h (2 Bft) S 180 6,1 C 5,3 C
27.11.2012 01:11 7,5 C 91 % 1004,2 hPa 0,0 l/m 6,8 km/h (2 Bft) S-SW 202 6,1 C 6,4 C
27.11.2012 01:16 7,6 C 91 % 1004,1 hPa 0,0 l/m 4,7 km/h (1 Bft) S-SO 157 6,2 C 7,1 C
27.11.2012 01:21 7,6 C 92 % 1004,3 hPa 0,0 l/m 7,9 km/h (2 Bft) SW 225 6,4 C 6,2 C
27.11.2012 01:26 7,6 C 92 % 1004,2 hPa 0,0 l/m 4,0 km/h (1 Bft) S-SO 157 6,4 C 7,6 C
27.11.2012 01:31 7,6 C 92 % 1004,3 hPa 0,0 l/m 12,2 km/h (2 Bft) S-SW 202 6,4 C 5,4 C
27.11.2012 01:36 7,6 C 92 % 1004,3 hPa 0,0 l/m 7,9 km/h (2 Bft) S-SW 202 6,4 C 6,2 C
27.11.2012 01:41 7,6 C 92 % 1004,3 hPa 0,0 l/m 4,0 km/h (1 Bft) S-SW 202 6,4 C 7,6 C
27.11.2012 01:46 7,6 C 92 % 1004,3 hPa 0,0 l/m 6,5 km/h (2 Bft) S-SW 202 6,4 C 6,6 C
27.11.2012 01:51 7,6 C 92 % 1004,4 hPa 0,0 l/m 6,1 km/h (2 Bft) SW 225 6,4 C 6,7 C
27.11.2012 01:56 7,6 C 92 % 1004,4 hPa 0,0 l/m 5,4 km/h (1 Bft) S 180 6,4 C 6,9 C
27.11.2012 02:01 7,6 C 92 % 1004,2 hPa 0,0 l/m 4,0 km/h (1 Bft) S-SW 202 6,4 C 7,6 C
27.11.2012 02:06 7,6 C 92 % 1004,2 hPa 0,0 l/m 3,2 km/h (1 Bft) S-SW 202 6,4 C 7,6 C
27.11.2012 02:11 7,6 C 92 % 1004,3 hPa 0,0 l/m 4,7 km/h (1 Bft) S-SW 202 6,4 C 7,1 C
27.11.2012 02:16 7,6 C 92 % 1004,3 hPa 0,0 l/m 5,8 km/h (2 Bft) S 180 6,4 C 6,8 C
27.11.2012 02:21 7,6 C 92 % 1004,4 hPa 0,0 l/m 3,2 km/h (1 Bft) S-SW 202 6,4 C 7,6 C
27.11.2012 02:26 7,6 C 92 % 1004,4 hPa 0,0 l/m 1,4 km/h (1 Bft) S 180 6,4 C 7,6 C
27.11.2012 02:31 7,6 C 92 % 1004,4 hPa 0,0 l/m 5,8 km/h (2 Bft) S 180 6,4 C 6,8 C
27.11.2012 02:36 7,6 C 92 % 1004,4 hPa 0,0 l/m 4,0 km/h (1 Bft) S-SW 202 6,4 C 7,6 C
27.11.2012 02:41 7,6 C 92 % 1004,4 hPa 0,0 l/m 4,0 km/h (1 Bft) S 180 6,4 C 7,6 C
27.11.2012 02:46 7,6 C 92 % 1004,3 hPa 0,0 l/m 3,2 km/h (1 Bft) S-SW 202 6,4 C 7,6 C
27.11.2012 02:51 7,6 C 92 % 1004,3 hPa 0,0 l/m 5,0 km/h (1 Bft) S-SW 202 6,4 C 7,0 C
27.11.2012 02:56 7,6 C 92 % 1004,2 hPa 0,0 l/m 3,2 km/h (1 Bft) S-SW 202 6,4 C 7,6 C
27.11.2012 03:01 7,6 C 92 % 1004,1 hPa 0,0 l/m 6,5 km/h (2 Bft) SW 225 6,4 C 6,6 C
27.11.2012 03:06 7,6 C 92 % 1004,0 hPa 0,0 l/m 3,6 km/h (1 Bft) S-SW 202 6,4 C 7,6 C
27.11.2012 03:11 7,5 C 92 % 1004,0 hPa 0,0 l/m 4,7 km/h (1 Bft) S-SW 202 6,3 C 7,0 C
27.11.2012 03:16 7,4 C 92 % 1004,1 hPa 0,0 l/m 2,5 km/h (1 Bft) S-SW 202 6,2 C 7,4 C
27.11.2012 03:21 7,4 C 92 % 1004,1 hPa 0,0 l/m 0,0 km/h (0 Bft) S-SW 202 6,2 C 7,4 C
27.11.2012 03:26 7,3 C 92 % 1004,0 hPa 0,0 l/m 4,3 km/h (1 Bft) S-SW 202 6,1 C 7,3 C
27.11.2012 03:31 7,3 C 92 % 1004,1 hPa 0,0 l/m 1,1 km/h (1 Bft) S-SW 202 6,1 C 7,3 C
27.11.2012 03:36 7,3 C 92 % 1004,1 hPa 0,0 l/m 4,0 km/h (1 Bft) SW 225 6,1 C 7,3 C
27.11.2012 03:41 7,3 C 92 % 1004,1 hPa 0,0 l/m 5,8 km/h (2 Bft) S-SW 202 6,1 C 6,4 C
27.11.2012 03:46 7,3 C 92 % 1004,0 hPa 0,0 l/m 4,0 km/h (1 Bft) S-SW 202 6,1 C 7,3 C
27.11.2012 03:51 7,3 C 92 % 1004,2 hPa 0,0 l/m 3,6 km/h (1 Bft) SW 225 6,1 C 7,3 C
27.11.2012 03:56 7,3 C 92 % 1004,1 hPa 0,0 l/m 7,6 km/h (2 Bft) SW 225 6,1 C 5,9 C
27.11.2012 04:01 7,3 C 92 % 1004,2 hPa 0,0 l/m 6,8 km/h (2 Bft) S 180 6,1 C 6,1 C
27.11.2012 04:06 7,4 C 92 % 1004,3 hPa 0,0 l/m 6,5 km/h (2 Bft) SW 225 6,2 C 6,3 C
27.11.2012 04:11 7,4 C 92 % 1004,1 hPa 0,0 l/m 4,7 km/h (1 Bft) S-SW 202 6,2 C 6,9 C
27.11.2012 04:16 7,5 C 92 % 1004,0 hPa 0,0 l/m 7,2 km/h (2 Bft) SW 225 6,3 C 6,3 C
27.11.2012 04:21 7,5 C 92 % 1003,9 hPa 0,0 l/m 6,5 km/h (2 Bft) W-SW 247 6,3 C 6,5 C
27.11.2012 04:26 7,6 C 93 % 1003,7 hPa 0,0 l/m 1,8 km/h (1 Bft) SW 225 6,5 C 7,6 C
27.11.2012 04:31 7,6 C 93 % 1004,0 hPa 0,0 l/m 5,0 km/h (1 Bft) SW 225 6,5 C 7,0 C
27.11.2012 04:36 7,6 C 93 % 1003,9 hPa 0,0 l/m 6,8 km/h (2 Bft) W-SW 247 6,5 C 6,5 C
27.11.2012 04:41 7,6 C 93 % 1004,0 hPa 0,0 l/m 3,2 km/h (1 Bft) S-SW 202 6,5 C 7,6 C
27.11.2012 04:46 7,7 C 93 % 1004,0 hPa 0,0 l/m 6,8 km/h (2 Bft) S-SW 202 6,6 C 6,6 C
27.11.2012 04:51 7,8 C 93 % 1004,0 hPa 0,0 l/m 5,8 km/h (2 Bft) S-SW 202 6,7 C 7,0 C
27.11.2012 04:56 7,8 C 93 % 1004,0 hPa 0,0 l/m 10,8 km/h (2 Bft) SW 225 6,7 C 5,9 C
27.11.2012 05:01 7,8 C 93 % 1004,0 hPa 0,0 l/m 4,7 km/h (1 Bft) S-SW 202 6,7 C 7,4 C
27.11.2012 05:06 7,8 C 93 % 1004,1 hPa 0,0 l/m 3,2 km/h (1 Bft) S 180 6,7 C 7,8 C
27.11.2012 05:11 7,8 C 93 % 1004,2 hPa 0,0 l/m 6,5 km/h (2 Bft) SW 225 6,7 C 6,8 C
27.11.2012 05:16 7,8 C 93 % 1004,2 hPa 0,0 l/m 5,4 km/h (1 Bft) S-SO 157 6,7 C 7,1 C
27.11.2012 05:21 7,8 C 93 % 1004,3 hPa 0,0 l/m 7,2 km/h (2 Bft) SW 225 6,7 C 6,6 C
27.11.2012 05:26 7,8 C 93 % 1004,2 hPa 0,0 l/m 4,0 km/h (1 Bft) S-SW 202 6,7 C 7,8 C
27.11.2012 05:31 7,8 C 93 % 1004,4 hPa 0,0 l/m 3,2 km/h (1 Bft) S 180 6,7 C 7,8 C
27.11.2012 05:36 7,8 C 93 % 1004,4 hPa 0,0 l/m 4,0 km/h (1 Bft) S-SW 202 6,7 C 7,8 C
27.11.2012 05:41 7,8 C 93 % 1004,4 hPa 0,0 l/m 3,6 km/h (1 Bft) S-SW 202 6,7 C 7,8 C
27.11.2012 05:46 7,8 C 92 % 1004,4 hPa 0,0 l/m 4,3 km/h (1 Bft) S-SW 202 6,6 C 7,8 C
27.11.2012 05:51 7,8 C 92 % 1004,4 hPa 0,0 l/m 2,9 km/h (1 Bft) S-SW 202 6,6 C 7,8 C
27.11.2012 05:56 7,8 C 92 % 1004,5 hPa 0,0 l/m 1,1 km/h (1 Bft) S-SW 202 6,6 C 7,8 C
27.11.2012 06:01 7,8 C 92 % 1004,4 hPa 0,0 l/m 3,2 km/h (1 Bft) S-SW 202 6,6 C 7,8 C
27.11.2012 06:06 7,8 C 92 % 1004,2 hPa 0,0 l/m 5,4 km/h (1 Bft) S-SW 202 6,6 C 7,1 C
27.11.2012 06:11 7,8 C 92 % 1004,0 hPa 0,0 l/m 4,0 km/h (1 Bft) S-SW 202 6,6 C 7,8 C
27.11.2012 06:16 7,8 C 92 % 1003,9 hPa 0,0 l/m 0,0 km/h (0 Bft) S 180 6,6 C 7,8 C
27.11.2012 06:21 7,7 C 92 % 1004,1 hPa 0,0 l/m 4,0 km/h (1 Bft) S-SO 157 6,5 C 7,7 C
27.11.2012 06:26 7,7 C 92 % 1004,4 hPa 0,0 l/m 3,6 km/h (1 Bft) S-SW 202 6,5 C 7,7 C
27.11.2012 06:31 7,6 C 92 % 1004,5 hPa 0,0 l/m 5,0 km/h (1 Bft) S-SW 202 6,4 C 7,0 C
27.11.2012 06:36 7,6 C 92 % 1004,2 hPa 0,0 l/m 4,0 km/h (1 Bft) S 180 6,4 C 7,6 C
27.11.2012 06:41 7,6 C 92 % 1004,3 hPa 0,0 l/m 5,0 km/h (1 Bft) SW 225 6,4 C 7,0 C
27.11.2012 06:46 7,5 C 92 % 1004,5 hPa 0,0 l/m 6,8 km/h (2 Bft) S-SW 202 6,3 C 6,4 C
27.11.2012 06:51 7,4 C 92 % 1004,4 hPa 0,0 l/m 5,0 km/h (1 Bft) SW 225 6,2 C 6,8 C
27.11.2012 06:56 7,4 C 92 % 1004,2 hPa 0,0 l/m 7,2 km/h (2 Bft) SW 225 6,2 C 6,1 C
27.11.2012 07:01 7,4 C 92 % 1004,2 hPa 0,0 l/m 4,3 km/h (1 Bft) S-SW 202 6,2 C 7,4 C
27.11.2012 07:06 7,4 C 92 % 1004,3 hPa 0,0 l/m 1,4 km/h (1 Bft) S-SW 202 6,2 C 7,4 C
27.11.2012 07:11 7,4 C 92 % 1004,4 hPa 0,0 l/m 0,0 km/h (0 Bft) S-SW 202 6,2 C 7,4 C
27.11.2012 07:16 7,4 C 92 % 1004,5 hPa 0,0 l/m 1,8 km/h (1 Bft) S 180 6,2 C 7,4 C
27.11.2012 07:21 7,3 C 92 % 1004,8 hPa 0,0 l/m 2,2 km/h (1 Bft) S-SW 202 6,1 C 7,3 C
27.11.2012 07:26 7,3 C 92 % 1004,6 hPa 0,0 l/m 2,9 km/h (1 Bft) S-SO 157 6,1 C 7,3 C
27.11.2012 07:31 7,2 C 92 % 1004,7 hPa 0,0 l/m 6,5 km/h (2 Bft) SW 225 6,0 C 6,1 C
27.11.2012 07:36 7,2 C 92 % 1004,8 hPa 0,0 l/m 6,5 km/h (2 Bft) S 180 6,0 C 6,1 C
27.11.2012 07:41 7,1 C 92 % 1004,9 hPa 0,0 l/m 5,4 km/h (1 Bft) S-SW 202 5,9 C 6,3 C
27.11.2012 07:46 7,0 C 92 % 1004,8 hPa 0,0 l/m 5,8 km/h (2 Bft) S-SW 202 5,8 C 6,1 C
27.11.2012 07:51 6,9 C 92 % 1004,9 hPa 0,0 l/m 5,4 km/h (1 Bft) SW 225 5,7 C 6,1 C
27.11.2012 07:56 6,9 C 92 % 1005,1 hPa 0,0 l/m 0,0 km/h (0 Bft) S-SW 202 5,7 C 6,9 C
27.11.2012 08:01 6,8 C 92 % 1005,1 hPa 0,0 l/m 4,0 km/h (1 Bft) S-SW 202 5,6 C 6,8 C
27.11.2012 08:06 6,8 C 92 % 1005,3 hPa 0,0 l/m 7,9 km/h (2 Bft) S-SW 202 5,6 C 5,3 C
27.11.2012 08:11 6,7 C 92 % 1005,2 hPa 0,0 l/m 2,2 km/h (1 Bft) S-SW 202 5,5 C 6,7 C
27.11.2012 08:16 6,7 C 92 % 1005,1 hPa 0,0 l/m 0,0 km/h (0 Bft) S-SW 202 5,5 C 6,7 C
27.11.2012 08:21 6,7 C 92 % 1005,2 hPa 0,0 l/m 0,0 km/h (0 Bft) S 180 5,5 C 6,7 C
27.11.2012 08:26 6,7 C 92 % 1005,3 hPa 0,0 l/m 4,7 km/h (1 Bft) S 180 5,5 C 6,1 C
27.11.2012 08:31 6,7 C 92 % 1005,6 hPa 0,0 l/m 2,5 km/h (1 Bft) S-SW 202 5,5 C 6,7 C
27.11.2012 08:36 6,6 C 92 % 1005,4 hPa 0,0 l/m 3,6 km/h (1 Bft) S-SW 202 5,4 C 6,6 C
27.11.2012 08:41 6,6 C 92 % 1005,5 hPa 0,0 l/m 3,2 km/h (1 Bft) S-SO 157 5,4 C 6,6 C
27.11.2012 08:46 6,6 C 92 % 1005,6 hPa 0,0 l/m 3,2 km/h (1 Bft) S 180 5,4 C 6,6 C
27.11.2012 08:51 6,6 C 92 % 1005,7 hPa 0,0 l/m 8,6 km/h (2 Bft) SW 225 5,4 C 4,9 C
27.11.2012 08:56 6,7 C 92 % 1005,7 hPa 0,0 l/m 2,2 km/h (1 Bft) S 180 5,5 C 6,7 C
27.11.2012 09:01 6,8 C 92 % 1005,8 hPa 0,0 l/m 6,5 km/h (2 Bft) SW 225 5,6 C 5,6 C
27.11.2012 09:06 6,8 C 92 % 1005,6 hPa 0,0 l/m 2,2 km/h (1 Bft) S-SW 202 5,6 C 6,8 C
27.11.2012 09:11 6,9 C 92 % 1005,6 hPa 0,0 l/m 1,4 km/h (1 Bft) S 180 5,7 C 6,9 C
27.11.2012 09:16 6,9 C 92 % 1005,8 hPa 0,0 l/m 0,0 km/h (0 Bft) S 180 5,7 C 6,9 C
27.11.2012 09:21 6,9 C 92 % 1005,7 hPa 0,0 l/m 3,6 km/h (1 Bft) S 180 5,7 C 6,9 C
27.11.2012 09:26 6,9 C 92 % 1005,8 hPa 0,0 l/m 2,5 km/h (1 Bft) S 180 5,7 C 6,9 C
27.11.2012 09:31 6,9 C 92 % 1005,8 hPa 0,0 l/m 0,0 km/h (0 Bft) S-SW 202 5,7 C 6,9 C
27.11.2012 09:36 6,9 C 92 % 1005,8 hPa 0,0 l/m 2,9 km/h (1 Bft) S-SO 157 5,7 C 6,9 C
27.11.2012 09:41 6,9 C 92 % 1005,9 hPa 0,0 l/m 4,0 km/h (1 Bft) SW 225 5,7 C 6,9 C
27.11.2012 09:46 6,9 C 92 % 1005,8 hPa 0,0 l/m 6,5 km/h (2 Bft) SW 225 5,7 C 5,8 C
27.11.2012 09:51 6,9 C 92 % 1005,7 hPa 0,0 l/m 3,6 km/h (1 Bft) S 180 5,7 C 6,9 C
27.11.2012 09:56 7,0 C 92 % 1006,0 hPa 0,0 l/m 2,5 km/h (1 Bft) S-SW 202 5,8 C 7,0 C
27.11.2012 10:01 7,1 C 92 % 1006,1 hPa 0,0 l/m 4,0 km/h (1 Bft) S-SW 202 5,9 C 7,1 C
27.11.2012 10:06 7,1 C 92 % 1006,1 hPa 0,0 l/m 4,0 km/h (1 Bft) S-SO 157 5,9 C 7,1 C
27.11.2012 10:11 7,2 C 92 % 1006,1 hPa 0,0 l/m 2,5 km/h (1 Bft) S-SW 202 6,0 C 7,2 C
27.11.2012 10:16 7,2 C 92 % 1006,1 hPa 0,0 l/m 4,3 km/h (1 Bft) S-SO 157 6,0 C 7,2 C
27.11.2012 10:21 7,3 C 92 % 1006,3 hPa 0,0 l/m 0,0 km/h (0 Bft) S 180 6,1 C 7,3 C
27.11.2012 10:26 7,4 C 92 % 1006,3 hPa 0,0 l/m 3,2 km/h (1 Bft) S-SW 202 6,2 C 7,4 C
27.11.2012 10:31 7,4 C 92 % 1006,3 hPa 0,0 l/m 2,2 km/h (1 Bft) S-SW 202 6,2 C 7,4 C
27.11.2012 10:36 7,5 C 92 % 1006,2 hPa 0,0 l/m 3,2 km/h (1 Bft) S 180 6,3 C 7,5 C
27.11.2012 10:41 7,6 C 93 % 1006,2 hPa 0,0 l/m 3,2 km/h (1 Bft) S-SW 202 6,5 C 7,6 C
27.11.2012 10:46 7,7 C 93 % 1006,3 hPa 0,0 l/m 5,0 km/h (1 Bft) S 180 6,6 C 7,1 C
27.11.2012 10:51 7,8 C 93 % 1006,3 hPa 0,0 l/m 8,3 km/h (2 Bft) SW 225 6,7 C 6,4 C
27.11.2012 10:56 7,9 C 93 % 1006,3 hPa 0,0 l/m 2,9 km/h (1 Bft) S-SW 202 6,8 C 7,9 C
27.11.2012 11:01 7,9 C 93 % 1006,3 hPa 0,0 l/m 7,2 km/h (2 Bft) S-SW 202 6,8 C 6,7 C
27.11.2012 11:06 8,0 C 93 % 1006,3 hPa 0,0 l/m 4,3 km/h (1 Bft) S 180 6,9 C 8,0 C
27.11.2012 11:11 8,1 C 93 % 1006,3 hPa 0,0 l/m 2,9 km/h (1 Bft) W-SW 247 7,0 C 8,1 C
27.11.2012 11:16 8,2 C 92 % 1006,3 hPa 0,0 l/m 3,6 km/h (1 Bft) S-SW 202 7,0 C 8,2 C
27.11.2012 11:21 8,3 C 92 % 1006,4 hPa 0,0 l/m 11,2 km/h (2 Bft) S-SW 202 7,1 C 6,4 C
27.11.2012 11:26 8,3 C 92 % 1006,4 hPa 0,0 l/m 7,6 km/h (2 Bft) S-SW 202 7,1 C 7,1 C
27.11.2012 11:31 8,4 C 92 % 1006,3 hPa 0,0 l/m 6,1 km/h (2 Bft) SW 225 7,2 C 7,6 C
27.11.2012 11:36 8,4 C 92 % 1006,3 hPa 0,0 l/m 7,2 km/h (2 Bft) S-SW 202 7,2 C 7,3 C
27.11.2012 11:41 8,4 C 92 % 1006,4 hPa 0,0 l/m 2,2 km/h (1 Bft) S-SW 202 7,2 C 8,4 C
27.11.2012 11:46 8,4 C 91 % 1006,3 hPa 0,0 l/m 3,2 km/h (1 Bft) O-SO 112 7,0 C 8,4 C
27.11.2012 11:51 8,4 C 91 % 1006,3 hPa 0,0 l/m 6,1 km/h (2 Bft) SW 225 7,0 C 7,6 C
27.11.2012 11:56 8,5 C 91 % 1006,3 hPa 0,0 l/m 4,3 km/h (1 Bft) S-SW 202 7,1 C 8,5 C
27.11.2012 12:01 8,4 C 91 % 1006,2 hPa 0,0 l/m 3,2 km/h (1 Bft) S 180 7,0 C 8,4 C
27.11.2012 12:06 8,5 C 91 % 1006,3 hPa 0,0 l/m 4,0 km/h (1 Bft) S 180 7,1 C 8,5 C
27.11.2012 12:11 8,6 C 91 % 1006,2 hPa 0,0 l/m 1,4 km/h (1 Bft) S 180 7,2 C 8,6 C
27.11.2012 12:16 8,6 C 91 % 1006,2 hPa 0,0 l/m 3,6 km/h (1 Bft) S-SW 202 7,2 C 8,6 C
27.11.2012 12:21 8,6 C 91 % 1006,3 hPa 0,0 l/m 0,0 km/h (0 Bft) S-SW 202 7,2 C 8,6 C
27.11.2012 12:26 8,7 C 91 % 1006,4 hPa 0,0 l/m 2,2 km/h (1 Bft) S-SW 202 7,3 C 8,7 C
27.11.2012 12:31 8,8 C 91 % 1006,3 hPa 0,0 l/m 0,0 km/h (0 Bft) S-SW 202 7,4 C 8,8 C
27.11.2012 12:36 8,8 C 91 % 1006,3 hPa 0,0 l/m 6,1 km/h (2 Bft) S-SW 202 7,4 C 8,1 C
27.11.2012 12:41 8,8 C 91 % 1006,4 hPa 0,0 l/m 4,3 km/h (1 Bft) S 180 7,4 C 8,8 C
27.11.2012 12:46 8,8 C 91 % 1006,4 hPa 0,0 l/m 1,8 km/h (1 Bft) S-SW 202 7,4 C 8,8 C
27.11.2012 12:51 8,8 C 91 % 1006,5 hPa 0,0 l/m 0,0 km/h (0 Bft) S-SW 202 7,4 C 8,8 C
27.11.2012 12:56 8,9 C 91 % 1006,5 hPa 0,0 l/m 4,7 km/h (1 Bft) S-SW 202 7,5 C 8,6 C
27.11.2012 13:01 8,9 C 91 % 1006,3 hPa 0,0 l/m 0,0 km/h (0 Bft) S-SW 202 7,5 C 8,9 C
27.11.2012 13:06 8,9 C 91 % 1006,4 hPa 0,0 l/m 3,2 km/h (1 Bft) S-SW 202 7,5 C 8,9 C
27.11.2012 13:11 8,9 C 91 % 1006,3 hPa 0,0 l/m 0,0 km/h (0 Bft) S-SW 202 7,5 C 8,9 C
27.11.2012 13:16 8,9 C 90 % 1006,4 hPa 0,0 l/m 0,0 km/h (0 Bft) S-SW 202 7,4 C 8,9 C
27.11.2012 13:21 8,9 C 90 % 1006,3 hPa 0,0 l/m 0,0 km/h (0 Bft) S-SW 202 7,4 C 8,9 C
27.11.2012 13:26 8,9 C 90 % 1006,2 hPa 0,0 l/m 2,2 km/h (1 Bft) S-SW 202 7,4 C 8,9 C
27.11.2012 13:31 8,9 C 90 % 1006,3 hPa 0,0 l/m 3,2 km/h (1 Bft) S-SW 202 7,4 C 8,9 C
27.11.2012 13:36 8,9 C 90 % 1006,3 hPa 0,0 l/m 4,0 km/h (1 Bft) S-SW 202 7,4 C 8,9 C
27.11.2012 13:41 8,9 C 90 % 1006,3 hPa 0,0 l/m 4,3 km/h (1 Bft) W 270 7,4 C 8,9 C
27.11.2012 13:46 8,9 C 90 % 1006,3 hPa 0,0 l/m 3,6 km/h (1 Bft) S-SW 202 7,4 C 8,9 C
27.11.2012 13:51 9,0 C 89 % 1006,3 hPa 0,0 l/m 0,0 km/h (0 Bft) S-SW 202 7,3 C 9,0 C
27.11.2012 13:56 9,1 C 89 % 1006,1 hPa 0,0 l/m 1,4 km/h (1 Bft) S-SW 202 7,4 C 9,1 C
27.11.2012 14:01 9,1 C 89 % 1006,3 hPa 0,0 l/m 0,0 km/h (0 Bft) S-SW 202 7,4 C 9,1 C
27.11.2012 14:06 9,1 C 89 % 1006,2 hPa 0,0 l/m 0,0 km/h (0 Bft) S-SW 202 7,4 C 9,1 C
27.11.2012 14:11 9,1 C 89 % 1006,2 hPa 0,0 l/m 0,0 km/h (0 Bft) SW 225 7,4 C 9,1 C
27.11.2012 14:16 9,1 C 89 % 1006,2 hPa 0,0 l/m 2,2 km/h (1 Bft) S-SW 202 7,4 C 9,1 C
27.11.2012 14:21 9,1 C 89 % 1006,2 hPa 0,0 l/m 0,0 km/h (0 Bft) S-SW 202 7,4 C 9,1 C
27.11.2012 14:26 9,1 C 89 % 1006,3 hPa 0,0 l/m 0,0 km/h (0 Bft) S-SW 202 7,4 C 9,1 C
27.11.2012 14:31 9,1 C 89 % 1006,2 hPa 0,0 l/m 0,0 km/h (0 Bft) S-SW 202 7,4 C 9,1 C
27.11.2012 14:36 9,1 C 89 % 1006,2 hPa 0,0 l/m 2,9 km/h (1 Bft) SW 225 7,4 C 9,1 C
27.11.2012 14:41 9,1 C 89 % 1006,1 hPa 0,0 l/m 2,2 km/h (1 Bft) S-SW 202 7,4 C 9,1 C
27.11.2012 14:46 9,1 C 89 % 1006,2 hPa 0,0 l/m 2,5 km/h (1 Bft) SW 225 7,4 C 9,1 C
27.11.2012 14:51 9,0 C 89 % 1006,1 hPa 0,0 l/m 1,4 km/h (1 Bft) W-SW 247 7,3 C 9,0 C
27.11.2012 14:56 9,0 C 89 % 1006,1 hPa 0,0 l/m 3,2 km/h (1 Bft) W-SW 247 7,3 C 9,0 C
27.11.2012 15:01 8,9 C 89 % 1006,4 hPa 0,0 l/m 0,0 km/h (0 Bft) W-SW 247 7,2 C 8,9 C
27.11.2012 15:06 8,9 C 89 % 1006,3 hPa 0,0 l/m 0,0 km/h (0 Bft) W-SW 247 7,2 C 8,9 C
27.11.2012 15:11 8,9 C 89 % 1006,3 hPa 0,0 l/m 0,0 km/h (0 Bft) W-SW 247 7,2 C 8,9 C
27.11.2012 15:16 8,8 C 89 % 1006,3 hPa 0,0 l/m 0,0 km/h (0 Bft) W-SW 247 7,1 C 8,8 C
27.11.2012 15:21 8,7 C 89 % 1006,3 hPa 0,0 l/m 0,0 km/h (0 Bft) W-SW 247 7,0 C 8,7 C
27.11.2012 15:26 8,6 C 89 % 1006,4 hPa 0,0 l/m 3,6 km/h (1 Bft) W-SW 247 6,9 C 8,6 C
27.11.2012 15:31 8,6 C 89 % 1006,4 hPa 0,0 l/m 4,7 km/h (1 Bft) W-SW 247 6,9 C 8,3 C
27.11.2012 15:36 8,5 C 89 % 1006,3 hPa 0,0 l/m 2,2 km/h (1 Bft) W-SW 247 6,8 C 8,5 C
27.11.2012 15:41 8,4 C 89 % 1006,3 hPa 0,0 l/m 1,4 km/h (1 Bft) W-SW 247 6,7 C 8,4 C
27.11.2012 15:46 8,4 C 89 % 1006,6 hPa 0,0 l/m 1,4 km/h (1 Bft) W-SW 247 6,7 C 8,4 C
27.11.2012 15:51 8,3 C 89 % 1006,6 hPa 0,0 l/m 1,1 km/h (1 Bft) W-SW 247 6,6 C 8,3 C
27.11.2012 15:56 8,3 C 89 % 1006,7 hPa 0,0 l/m 2,2 km/h (1 Bft) W-SW 247 6,6 C 8,3 C
27.11.2012 16:01 8,2 C 89 % 1006,6 hPa 0,0 l/m 1,1 km/h (1 Bft) W-SW 247 6,5 C 8,2 C
27.11.2012 16:06 8,2 C 89 % 1006,4 hPa 0,0 l/m 0,0 km/h (0 Bft) W-SW 247 6,5 C 8,2 C
27.11.2012 16:11 8,1 C 89 % 1006,5 hPa 0,0 l/m 0,0 km/h (0 Bft) W-SW 247 6,4 C 8,1 C
27.11.2012 16:16 8,1 C 89 % 1006,5 hPa 0,0 l/m 0,0 km/h (0 Bft) W-SW 247 6,4 C 8,1 C
27.11.2012 16:21 8,1 C 89 % 1006,4 hPa 0,0 l/m 0,0 km/h (0 Bft) W-SW 247 6,4 C 8,1 C
27.11.2012 16:26 7,9 C 89 % 1006,5 hPa 0,0 l/m 0,0 km/h (0 Bft) W-SW 247 6,2 C 7,9 C
27.11.2012 16:31 7,9 C 89 % 1006,7 hPa 0,0 l/m 0,0 km/h (0 Bft) W-SW 247 6,2 C 7,9 C
27.11.2012 16:36 7,9 C 89 % 1006,6 hPa 0,0 l/m 0,0 km/h (0 Bft) W-SW 247 6,2 C 7,9 C
27.11.2012 16:41 7,8 C 89 % 1006,5 hPa 0,0 l/m 0,0 km/h (0 Bft) W-SW 247 6,1 C 7,8 C
27.11.2012 16:46 7,8 C 89 % 1006,5 hPa 0,0 l/m 0,0 km/h (0 Bft) W-SW 247 6,1 C 7,8 C
27.11.2012 16:51 7,8 C 89 % 1006,4 hPa 0,0 l/m 0,0 km/h (0 Bft) W-SW 247 6,1 C 7,8 C
27.11.2012 16:56 7,6 C 90 % 1006,5 hPa 0,0 l/m 1,8 km/h (1 Bft) W-SW 247 6,1 C 7,6 C
27.11.2012 17:01 7,6 C 90 % 1006,7 hPa 0,0 l/m 0,0 km/h (0 Bft) W-SW 247 6,1 C 7,6 C
27.11.2012 17:06 7,6 C 90 % 1006,5 hPa 0,0 l/m 2,5 km/h (1 Bft) W-SW 247 6,1 C 7,6 C
27.11.2012 17:11 7,6 C 90 % 1006,6 hPa 0,0 l/m 0,0 km/h (0 Bft) W-SW 247 6,1 C 7,6 C
27.11.2012 17:16 7,5 C 90 % 1006,5 hPa 0,0 l/m 0,0 km/h (0 Bft) W-SW 247 6,0 C 7,5 C
27.11.2012 17:21 7,5 C 90 % 1006,6 hPa 0,0 l/m 1,4 km/h (1 Bft) W-SW 247 6,0 C 7,5 C
27.11.2012 17:26 7,4 C 90 % 1006,6 hPa 0,0 l/m 0,0 km/h (0 Bft) W-SW 247 5,9 C 7,4 C
27.11.2012 17:31 7,4 C 90 % 1006,6 hPa 0,0 l/m 2,5 km/h (1 Bft) W-SW 247 5,9 C 7,4 C
27.11.2012 17:36 7,3 C 90 % 1006,8 hPa 0,0 l/m 2,2 km/h (1 Bft) W-SW 247 5,8 C 7,3 C
27.11.2012 17:41 7,3 C 90 % 1006,9 hPa 0,0 l/m 0,0 km/h (0 Bft) W-SW 247 5,8 C 7,3 C
27.11.2012 17:46 7,2 C 90 % 1006,9 hPa 0,0 l/m 0,0 km/h (0 Bft) W-SW 247 5,7 C 7,2 C
27.11.2012 17:51 7,2 C 90 % 1006,9 hPa 0,0 l/m 1,8 km/h (1 Bft) W-SW 247 5,7 C 7,2 C
27.11.2012 17:56 7,2 C 90 % 1006,9 hPa 0,0 l/m 2,5 km/h (1 Bft) W-SW 247 5,7 C 7,2 C
27.11.2012 18:01 7,2 C 91 % 1006,9 hPa 0,0 l/m 2,2 km/h (1 Bft) S 180 5,8 C 7,2 C
27.11.2012 18:06 7,2 C 91 % 1006,9 hPa 0,0 l/m 4,0 km/h (1 Bft) S 180 5,8 C 7,2 C
27.11.2012 18:11 7,1 C 91 % 1006,9 hPa 0,0 l/m 2,5 km/h (1 Bft) S-SO 157 5,7 C 7,1 C
27.11.2012 18:16 7,1 C 91 % 1006,8 hPa 0,0 l/m 2,2 km/h (1 Bft) S-SO 157 5,7 C 7,1 C
27.11.2012 18:21 7,1 C 91 % 1006,9 hPa 0,0 l/m 2,2 km/h (1 Bft) S 180 5,7 C 7,1 C
27.11.2012 18:26 7,0 C 91 % 1006,9 hPa 0,0 l/m 5,0 km/h (1 Bft) S-SO 157 5,6 C 6,4 C
27.11.2012 18:31 6,9 C 91 % 1006,9 hPa 0,0 l/m 0,0 km/h (0 Bft) S-SO 157 5,5 C 6,9 C
27.11.2012 18:36 6,9 C 91 % 1006,7 hPa 0,0 l/m 4,3 km/h (1 Bft) S 180 5,5 C 6,9 C
27.11.2012 18:41 6,9 C 91 % 1006,6 hPa 0,0 l/m 3,6 km/h (1 Bft) S 180 5,5 C 6,9 C
27.11.2012 18:46 6,9 C 91 % 1006,6 hPa 0,0 l/m 3,6 km/h (1 Bft) S-SO 157 5,5 C 6,9 C
27.11.2012 18:51 6,8 C 91 % 1006,7 hPa 0,0 l/m 2,2 km/h (1 Bft) S-SW 202 5,4 C 6,8 C
27.11.2012 18:56 6,8 C 92 % 1006,8 hPa 0,0 l/m 2,2 km/h (1 Bft) S-SW 202 5,6 C 6,8 C
27.11.2012 19:01 6,8 C 92 % 1006,8 hPa 0,0 l/m 1,1 km/h (1 Bft) S 180 5,6 C 6,8 C
27.11.2012 19:06 6,8 C 92 % 1006,9 hPa 0,0 l/m 0,0 km/h (0 Bft) S 180 5,6 C 6,8 C
27.11.2012 19:11 6,8 C 92 % 1006,9 hPa 0,0 l/m 0,0 km/h (0 Bft) S 180 5,6 C 6,8 C
27.11.2012 19:16 6,8 C 92 % 1007,2 hPa 0,0 l/m 0,0 km/h (0 Bft) S 180 5,6 C 6,8 C
27.11.2012 19:21 6,8 C 92 % 1007,2 hPa 0,0 l/m 0,0 km/h (0 Bft) S 180 5,6 C 6,8 C
27.11.2012 19:26 6,8 C 92 % 1007,3 hPa 0,0 l/m 0,0 km/h (0 Bft) S 180 5,6 C 6,8 C
27.11.2012 19:31 6,7 C 92 % 1007,3 hPa 0,0 l/m 0,0 km/h (0 Bft) S 180 5,5 C 6,7 C
27.11.2012 19:36 6,7 C 92 % 1007,2 hPa 0,0 l/m 0,0 km/h (0 Bft) S 180 5,5 C 6,7 C
27.11.2012 19:41 6,6 C 92 % 1007,0 hPa 0,0 l/m 0,0 km/h (0 Bft) S 180 5,4 C 6,6 C
27.11.2012 19:46 6,5 C 92 % 1007,0 hPa 0,0 l/m 0,0 km/h (0 Bft) S 180 5,3 C 6,5 C
27.11.2012 19:51 6,5 C 92 % 1007,1 hPa 0,0 l/m 0,0 km/h (0 Bft) S 180 5,3 C 6,5 C
27.11.2012 19:56 6,4 C 92 % 1007,0 hPa 0,0 l/m 1,1 km/h (1 Bft) S 180 5,2 C 6,4 C
27.11.2012 20:01 6,3 C 92 % 1006,9 hPa 0,0 l/m 0,0 km/h (0 Bft) S 180 5,1 C 6,3 C
27.11.2012 20:06 6,3 C 91 % 1007,0 hPa 0,0 l/m 0,0 km/h (0 Bft) S 180 4,9 C 6,3 C
27.11.2012 20:11 6,2 C 91 % 1007,1 hPa 0,0 l/m 0,0 km/h (0 Bft) S 180 4,8 C 6,2 C
27.11.2012 20:16 6,2 C 91 % 1007,1 hPa 0,0 l/m 2,2 km/h (1 Bft) S 180 4,8 C 6,2 C
27.11.2012 20:21 6,1 C 91 % 1007,1 hPa 0,0 l/m 0,0 km/h (0 Bft) S 180 4,7 C 6,1 C
27.11.2012 20:26 6,1 C 92 % 1007,1 hPa 0,0 l/m 2,5 km/h (1 Bft) S 180 4,9 C 6,1 C
27.11.2012 20:31 6,1 C 92 % 1007,1 hPa 0,0 l/m 0,0 km/h (0 Bft) S-SO 157 4,9 C 6,1 C
27.11.2012 20:36 6,1 C 92 % 1007,1 hPa 0,0 l/m 0,0 km/h (0 Bft) S-SO 157 4,9 C 6,1 C
27.11.2012 20:41 6,1 C 92 % 1007,2 hPa 0,0 l/m 0,0 km/h (0 Bft) S-SO 157 4,9 C 6,1 C
27.11.2012 20:46 6,1 C 92 % 1007,1 hPa 0,0 l/m 0,0 km/h (0 Bft) S-SO 157 4,9 C 6,1 C
27.11.2012 20:51 6,1 C 92 % 1007,1 hPa 0,0 l/m 0,0 km/h (0 Bft) S-SO 157 4,9 C 6,1 C
27.11.2012 20:56 6,1 C 92 % 1007,1 hPa 0,0 l/m 0,0 km/h (0 Bft) S-SO 157 4,9 C 6,1 C
27.11.2012 21:01 6,0 C 92 % 1007,1 hPa 0,0 l/m 0,0 km/h (0 Bft) S-SO 157 4,8 C 6,0 C
27.11.2012 21:06 5,9 C 92 % 1007,0 hPa 0,0 l/m 1,4 km/h (1 Bft) S-SO 157 4,7 C 5,9 C
27.11.2012 21:11 5,9 C 92 % 1007,0 hPa 0,0 l/m 0,0 km/h (0 Bft) S-SO 157 4,7 C 5,9 C
27.11.2012 21:16 5,9 C 92 % 1006,9 hPa 0,0 l/m 0,0 km/h (0 Bft) S-SO 157 4,7 C 5,9 C
27.11.2012 21:21 5,9 C 92 % 1007,0 hPa 0,0 l/m 1,4 km/h (1 Bft) S-SO 157 4,7 C 5,9 C
27.11.2012 21:26 6,0 C 92 % 1007,1 hPa 0,0 l/m 0,0 km/h (0 Bft) S-SO 157 4,8 C 6,0 C
27.11.2012 21:31 6,1 C 92 % 1007,1 hPa 0,0 l/m 0,0 km/h (0 Bft) S-SO 157 4,9 C 6,1 C
27.11.2012 21:36 6,1 C 92 % 1007,0 hPa 0,0 l/m 2,2 km/h (1 Bft) S-SO 157 4,9 C 6,1 C
27.11.2012 21:41 6,1 C 92 % 1007,0 hPa 0,0 l/m 1,4 km/h (1 Bft) S-SO 157 4,9 C 6,1 C
27.11.2012 21:46 6,1 C 92 % 1006,9 hPa 0,0 l/m 2,5 km/h (1 Bft) S-SO 157 4,9 C 6,1 C
27.11.2012 21:51 6,1 C 92 % 1006,8 hPa 0,0 l/m 1,4 km/h (1 Bft) S-SO 157 4,9 C 6,1 C
27.11.2012 21:56 6,1 C 92 % 1006,8 hPa 0,0 l/m 0,0 km/h (0 Bft) S-SO 157 4,9 C 6,1 C
27.11.2012 22:01 6,1 C 92 % 1006,9 hPa 0,0 l/m 0,0 km/h (0 Bft) S-SO 157 4,9 C 6,1 C
27.11.2012 22:06 6,1 C 92 % 1006,9 hPa 0,0 l/m 0,0 km/h (0 Bft) S-SO 157 4,9 C 6,1 C
27.11.2012 22:11 6,0 C 92 % 1007,1 hPa 0,0 l/m 0,0 km/h (0 Bft) S-SO 157 4,8 C 6,0 C
27.11.2012 22:16 5,9 C 92 % 1007,2 hPa 0,0 l/m 0,0 km/h (0 Bft) S-SO 157 4,7 C 5,9 C
27.11.2012 22:21 5,9 C 92 % 1006,9 hPa 0,0 l/m 0,0 km/h (0 Bft) S-SO 157 4,7 C 5,9 C
27.11.2012 22:26 5,9 C 92 % 1007,0 hPa 0,0 l/m 0,0 km/h (0 Bft) S-SO 157 4,7 C 5,9 C
27.11.2012 22:31 5,8 C 92 % 1007,0 hPa 0,0 l/m 1,4 km/h (1 Bft) S-SO 157 4,6 C 5,8 C
27.11.2012 22:36 5,8 C 93 % 1007,0 hPa 0,0 l/m 0,0 km/h (0 Bft) S-SO 157 4,8 C 5,8 C
27.11.2012 22:41 5,8 C 93 % 1007,3 hPa 0,0 l/m 0,0 km/h (0 Bft) S-SO 157 4,8 C 5,8 C
27.11.2012 22:46 5,6 C 93 % 1007,4 hPa 0,0 l/m 0,0 km/h (0 Bft) S-SO 157 4,6 C 5,6 C
27.11.2012 22:51 5,6 C 93 % 1007,4 hPa 0,0 l/m 0,0 km/h (0 Bft) S-SO 157 4,6 C 5,6 C
27.11.2012 22:56 5,6 C 93 % 1007,5 hPa 0,0 l/m 0,0 km/h (0 Bft) S-SO 157 4,6 C 5,6 C
27.11.2012 23:01 5,6 C 93 % 1007,4 hPa 0,0 l/m 0,0 km/h (0 Bft) S-SO 157 4,6 C 5,6 C
27.11.2012 23:06 5,5 C 93 % 1007,4 hPa 0,0 l/m 0,0 km/h (0 Bft) S-SO 157 4,5 C 5,5 C
27.11.2012 23:11 5,5 C 93 % 1007,3 hPa 0,0 l/m 0,0 km/h (0 Bft) S-SO 157 4,5 C 5,5 C
27.11.2012 23:16 5,5 C 93 % 1007,3 hPa 0,0 l/m 0,0 km/h (0 Bft) S-SO 157 4,5 C 5,5 C
27.11.2012 23:21 5,4 C 93 % 1007,3 hPa 0,0 l/m 0,0 km/h (0 Bft) S-SO 157 4,4 C 5,4 C
27.11.2012 23:26 5,4 C 93 % 1007,4 hPa 0,0 l/m 0,0 km/h (0 Bft) S-SO 157 4,4 C 5,4 C
27.11.2012 23:31 5,4 C 93 % 1007,3 hPa 0,0 l/m 1,8 km/h (1 Bft) S-SO 157 4,4 C 5,4 C
27.11.2012 23:36 5,4 C 93 % 1007,0 hPa 0,0 l/m 0,0 km/h (0 Bft) S-SO 157 4,4 C 5,4 C
27.11.2012 23:41 5,3 C 93 % 1007,1 hPa 0,0 l/m 0,0 km/h (0 Bft) S-SO 157 4,3 C 5,3 C
27.11.2012 23:46 5,3 C 93 % 1007,0 hPa 0,0 l/m 0,0 km/h (0 Bft) S-SO 157 4,3 C 5,3 C
27.11.2012 23:51 5,3 C 93 % 1006,8 hPa 0,0 l/m 1,4 km/h (1 Bft) S-SO 157 4,3 C 5,3 C
27.11.2012 23:56 5,3 C 93 % 1006,9 hPa 0,0 l/m 0,0 km/h (0 Bft) S-SO 157 4,3 C 5,3 C
_ Min-Zeit 23:41 13:51 04:26 - 00:16 - - 23:41 08:51
Minimum _ 5,3 C 89 % 1003,7 hPa - 0,0 km/h (0 Bft) - - 4,3 C 4,9 C
_ Max-Zeit 13:56 04:26 22:56 00:41 01:31 - - 12:56 13:56
Maximum _ 9,1 C 93 % 1007,5 hPa 0,5 l/m 12,2 km/h
S-SW (2 Bft)
- - 7,5 C 9,1 C
Durchschnitt _ 7,4 C 91 % 1005,8 hPa #0,5 l/m 2,8 km/h (1 Bft) S-SW - 6,1 C 7,2 C
(c) by David Heller